User: anonymous   Login
Location: Brno
(49.2000°N, 16.6330°E)
Time: 16:02:31
(UTC+01:00)
Language:

Meteor 1-4 Rocket - Orbit

View from above orbital plane
View from above orbital plane
View from above satellite
View from above satellite

Ground track
Ground track

The orbit data is extracted from the following two-line orbital elements,

1  4394U 70037B   17346.89700828 +.00001178 +00000-0 +40451-4 0  9995
2  4394 081.2407 164.9556 0039447 232.8426 126.9205 15.28532466592535
Epoch (UTC): 12 December 2017 21:31:41
Eccentricity: 0.0039447
inclination: 81.2407°
perigee height: 453 km
apogee height: 507 km
right ascension of ascending node: 164.9556°
argument of perigee: 232.8426°
revolutions per day: 15.28532466
mean anomaly at epoch: 126.9205°
orbit number at epoch: 59253

The dashed part of the orbit path shows where the satellite is in the earth's shadow,  

DLR